Location: Newark
(40.9833°N, 0.0333°W)
Time: 01:31:57
(UTC+00:00)

deb Explorer IX - Pass Details

Date: 30 October 2020
Orbit: 537 x 1105 km, 38.8° (Epoch: 02 December)

Event Time Altitude Azimuth Distance (km) Brightness Sun altitude
Rises 09:43:31 0° 279° (W) 3,728 ? 28.4°
Reaches altitude 10° 09:46:18 10° 272° (W) 2,839 ? 28.7°
Maximum altitude 09:52:38 37° 208° (SSW) 1,631 ? 29.3°
Drops below altitude 10° 09:59:12 10° 144° (SE) 2,952 ? 29.9°
Sets 10:02:10 0° 136° (SE) 3,892 ? 30.2°
